Wetterdaten: Woche 03.12.18 - 09.12.18 (KW49)
Datum Zeit Temperatur Luftfeuchte Luftdruck Niederschlag Windrichtung Sonnenschein Solar Wind
03.12.2018 00:00 9,4 C 97 % 1008,5 hPa 0,0 l/m SW 0,00 h 0 W/m 25,5 km/h (4 Bft)
03.12.2018 01:00 9,6 C 97 % 1008,3 hPa 0,4 l/m W-SW 0,00 h 0 W/m 28,4 km/h (4 Bft)
03.12.2018 02:00 9,4 C 97 % 1008,1 hPa 1,4 l/m SW 0,00 h 0 W/m 27,5 km/h (4 Bft)
03.12.2018 03:00 9,3 C 98 % 1008,4 hPa 0,0 l/m SW 0,00 h 0 W/m 22,5 km/h (4 Bft)
03.12.2018 04:00 9,4 C 98 % 1008,3 hPa 0,6 l/m W-SW 0,00 h 0 W/m 25,9 km/h (4 Bft)
03.12.2018 05:00 9,5 C 98 % 1008,3 hPa 0,0 l/m W-SW 0,00 h 0 W/m 27,4 km/h (4 Bft)
03.12.2018 06:00 9,6 C 98 % 1008,3 hPa 0,2 l/m W-SW 0,00 h 0 W/m 27,2 km/h (4 Bft)
03.12.2018 07:00 9,7 C 98 % 1008,6 hPa 0,2 l/m SW 0,00 h 0 W/m 27,1 km/h (4 Bft)
03.12.2018 08:00 9,8 C 98 % 1008,6 hPa 0,0 l/m SW 0,00 h 15 W/m 24,7 km/h (4 Bft)
03.12.2018 09:00 10,0 C 98 % 1008,6 hPa 0,0 l/m SW 0,00 h 44 W/m 20,1 km/h (4 Bft)
03.12.2018 10:00 10,3 C 98 % 1008,7 hPa 0,2 l/m W-SW 0,00 h 67 W/m 22,2 km/h (4 Bft)
03.12.2018 11:00 10,8 C 97 % 1008,3 hPa 0,0 l/m W-SW 0,00 h 124 W/m 27,9 km/h (4 Bft)
03.12.2018 12:00 11,3 C 95 % 1007,9 hPa 0,0 l/m SW 0,00 h 103 W/m 25,3 km/h (4 Bft)
03.12.2018 13:00 11,5 C 93 % 1007,1 hPa 0,0 l/m W-SW 0,00 h 86 W/m 20,8 km/h (4 Bft)
03.12.2018 14:00 11,7 C 92 % 1006,5 hPa 0,0 l/m W-SW 0,00 h 82 W/m 28,7 km/h (4 Bft)
03.12.2018 15:00 11,6 C 92 % 1006,5 hPa 0,2 l/m W-SW 0,00 h 24 W/m 28,0 km/h (4 Bft)
03.12.2018 16:00 11,2 C 94 % 1006,3 hPa 0,0 l/m W-SW 0,00 h 10 W/m 26,8 km/h (4 Bft)
03.12.2018 17:00 11,1 C 95 % 1005,9 hPa 0,4 l/m W-SW 0,00 h 0 W/m 29,9 km/h (5 Bft)
03.12.2018 18:00 11,0 C 94 % 1005,2 hPa 0,0 l/m SW 0,00 h 0 W/m 23,3 km/h (4 Bft)
03.12.2018 19:00 11,0 C 94 % 1004,7 hPa 0,8 l/m W-SW 0,00 h 0 W/m 25,7 km/h (4 Bft)
03.12.2018 20:00 10,5 C 95 % 1005,1 hPa 5,8 l/m W-SW 0,00 h 0 W/m 22,4 km/h (4 Bft)
03.12.2018 21:00 9,8 C 96 % 1006,8 hPa 0,0 l/m W-SW 0,00 h 0 W/m 20,5 km/h (4 Bft)
03.12.2018 22:00 9,5 C 95 % 1009,1 hPa 0,0 l/m W-SW 0,00 h 0 W/m 29,9 km/h (5 Bft)
03.12.2018 23:00 9,1 C 92 % 1009,6 hPa 0,0 l/m W-SW 0,00 h 0 W/m 29,3 km/h (5 Bft)
04.12.2018 00:00 8,7 C 92 % 1010,0 hPa 0,0 l/m W-SW 0,00 h 0 W/m 26,6 km/h (4 Bft)
04.12.2018 01:00 8,5 C 92 % 1010,3 hPa 0,0 l/m W-SW 0,00 h 0 W/m 24,5 km/h (4 Bft)
04.12.2018 02:00 8,3 C 92 % 1011,0 hPa 0,0 l/m W-SW 0,00 h 0 W/m 22,2 km/h (4 Bft)
04.12.2018 03:00 8,1 C 93 % 1011,4 hPa 0,0 l/m SW 0,00 h 0 W/m 20,5 km/h (4 Bft)
04.12.2018 04:00 7,8 C 94 % 1011,8 hPa 0,0 l/m W-SW 0,00 h 0 W/m 18,9 km/h (3 Bft)
04.12.2018 05:00 7,9 C 95 % 1012,5 hPa 0,0 l/m W-SW 0,00 h 0 W/m 20,4 km/h (4 Bft)
04.12.2018 06:00 7,9 C 95 % 1013,0 hPa 0,2 l/m W-SW 0,00 h 0 W/m 14,5 km/h (3 Bft)
04.12.2018 07:00 7,1 C 94 % 1013,6 hPa 0,0 l/m W-SW 0,00 h 5 W/m 8,6 km/h (2 Bft)
04.12.2018 08:00 6,5 C 95 % 1015,1 hPa 0,0 l/m SW 0,00 h 24 W/m 7,1 km/h (2 Bft)
04.12.2018 09:00 7,1 C 95 % 1016,5 hPa 0,0 l/m W-SW 0,00 h 65 W/m 12,4 km/h (3 Bft)
04.12.2018 10:00 7,8 C 92 % 1017,4 hPa 0,0 l/m W 0,00 h 72 W/m 14,8 km/h (3 Bft)
04.12.2018 11:00 7,5 C 90 % 1017,9 hPa 0,0 l/m W-NW 0,25 h 193 W/m 15,3 km/h (3 Bft)
04.12.2018 12:00 8,1 C 87 % 1018,4 hPa 0,0 l/m W-NW 0,25 h 151 W/m 18,5 km/h (3 Bft)
04.12.2018 13:00 7,7 C 88 % 1018,9 hPa 0,0 l/m W 0,42 h 168 W/m 15,8 km/h (3 Bft)
04.12.2018 14:00 7,9 C 87 % 1019,2 hPa 0,0 l/m W-NW 0,17 h 89 W/m 8,3 km/h (2 Bft)
04.12.2018 15:00 7,3 C 90 % 1019,9 hPa 0,4 l/m N-NW 0,00 h 21 W/m 9,0 km/h (2 Bft)
04.12.2018 16:00 6,7 C 91 % 1020,8 hPa 0,0 l/m N-NW 0,00 h 8 W/m 2,1 km/h (1 Bft)
04.12.2018 17:00 6,3 C 92 % 1021,7 hPa 0,0 l/m N 0,00 h 0 W/m 0,0 km/h (0 Bft)
04.12.2018 18:00 6,0 C 93 % 1022,7 hPa 0,0 l/m N 0,00 h 0 W/m 1,7 km/h (1 Bft)
04.12.2018 19:00 5,7 C 93 % 1023,2 hPa 0,0 l/m N 0,00 h 0 W/m 0,9 km/h (0 Bft)
04.12.2018 20:00 5,3 C 94 % 1023,8 hPa 0,0 l/m N 0,00 h 0 W/m 0,0 km/h (0 Bft)
04.12.2018 21:00 5,2 C 94 % 1024,2 hPa 0,2 l/m N 0,00 h 0 W/m 0,0 km/h (0 Bft)
04.12.2018 22:00 5,0 C 95 % 1024,3 hPa 0,0 l/m N 0,00 h 0 W/m 0,0 km/h (0 Bft)
04.12.2018 23:00 4,8 C 95 % 1024,8 hPa 0,0 l/m N 0,00 h 0 W/m 0,0 km/h (0 Bft)
05.12.2018 00:00 4,6 C 96 % 1024,9 hPa 0,0 l/m N 0,00 h 0 W/m 0,0 km/h (0 Bft)
05.12.2018 01:00 4,6 C 96 % 1024,7 hPa 0,0 l/m N 0,00 h 0 W/m 0,0 km/h (0 Bft)
05.12.2018 02:00 4,4 C 97 % 1024,7 hPa 0,0 l/m N 0,00 h 0 W/m 0,0 km/h (0 Bft)
05.12.2018 03:00 4,4 C 97 % 1024,8 hPa 0,0 l/m N 0,00 h 0 W/m 0,0 km/h (0 Bft)
05.12.2018 04:00 4,3 C 97 % 1024,5 hPa 0,0 l/m N 0,00 h 0 W/m 0,1 km/h (0 Bft)
05.12.2018 05:00 3,8 C 97 % 1024,9 hPa 0,0 l/m N 0,00 h 0 W/m 0,5 km/h (0 Bft)
05.12.2018 06:00 4,0 C 98 % 1024,8 hPa 0,2 l/m N 0,00 h 0 W/m 0,0 km/h (0 Bft)
05.12.2018 07:00 4,2 C 98 % 1024,9 hPa 0,0 l/m N 0,00 h 0 W/m 0,0 km/h (0 Bft)
05.12.2018 08:00 4,3 C 98 % 1025,3 hPa 0,0 l/m N 0,00 h 13 W/m 0,0 km/h (0 Bft)
05.12.2018 09:00 4,4 C 98 % 1025,3 hPa 0,0 l/m N 0,00 h 37 W/m 0,0 km/h (0 Bft)
05.12.2018 10:00 4,7 C 98 % 1025,3 hPa 0,0 l/m N 0,00 h 57 W/m 0,0 km/h (0 Bft)
05.12.2018 11:00 5,2 C 98 % 1024,8 hPa 0,0 l/m N 0,00 h 100 W/m 0,0 km/h (0 Bft)
05.12.2018 12:00 5,8 C 98 % 1024,0 hPa 0,0 l/m N 0,00 h 92 W/m 0,8 km/h (0 Bft)
05.12.2018 13:00 6,4 C 96 % 1023,3 hPa 0,0 l/m N 0,00 h 104 W/m 0,4 km/h (0 Bft)
05.12.2018 14:00 6,8 C 94 % 1022,7 hPa 0,0 l/m N 0,33 h 136 W/m 0,0 km/h (0 Bft)
05.12.2018 15:00 7,3 C 92 % 1022,2 hPa 0,0 l/m N-NO 0,67 h 70 W/m 1,2 km/h (1 Bft)
05.12.2018 16:00 7,0 C 92 % 1021,9 hPa 0,0 l/m N 0,08 h 11 W/m 0,0 km/h (0 Bft)
05.12.2018 17:00 6,1 C 91 % 1021,3 hPa 0,0 l/m N-NO 0,00 h 0 W/m 0,7 km/h (0 Bft)
05.12.2018 18:00 5,4 C 93 % 1020,8 hPa 0,0 l/m N 0,00 h 0 W/m 0,0 km/h (0 Bft)
05.12.2018 19:00 5,2 C 95 % 1020,1 hPa 0,0 l/m N 0,00 h 0 W/m 0,0 km/h (0 Bft)
05.12.2018 20:00 4,9 C 95 % 1019,7 hPa 0,0 l/m N 0,00 h 0 W/m 0,1 km/h (0 Bft)
05.12.2018 21:00 4,8 C 96 % 1019,6 hPa 0,0 l/m N 0,00 h 0 W/m 0,3 km/h (0 Bft)
05.12.2018 22:00 4,7 C 97 % 1019,2 hPa 0,0 l/m N 0,00 h 0 W/m 0,4 km/h (0 Bft)
05.12.2018 23:00 4,6 C 97 % 1018,9 hPa 0,0 l/m O 0,00 h 0 W/m 3,2 km/h (1 Bft)
06.12.2018 00:00 4,9 C 98 % 1019,1 hPa 0,0 l/m N 0,00 h 0 W/m 0,4 km/h (0 Bft)
06.12.2018 01:00 5,1 C 98 % 1019,0 hPa 0,4 l/m O 0,00 h 0 W/m 1,1 km/h (0 Bft)
06.12.2018 02:00 5,2 C 98 % 1018,4 hPa 0,8 l/m O-SO 0,00 h 0 W/m 5,0 km/h (1 Bft)
06.12.2018 03:00 5,6 C 98 % 1018,3 hPa 1,4 l/m S-SW 0,00 h 0 W/m 11,4 km/h (2 Bft)
06.12.2018 04:00 5,6 C 99 % 1017,7 hPa 0,0 l/m S-SW 0,00 h 0 W/m 4,7 km/h (1 Bft)
06.12.2018 05:00 6,0 C 99 % 1018,4 hPa 1,4 l/m W-SW 0,00 h 0 W/m 14,4 km/h (3 Bft)
06.12.2018 06:00 6,0 C 99 % 1018,4 hPa 0,4 l/m SW 0,00 h 0 W/m 15,0 km/h (3 Bft)
06.12.2018 07:00 5,8 C 99 % 1018,6 hPa 0,0 l/m SW 0,00 h 0 W/m 16,5 km/h (3 Bft)
06.12.2018 08:00 6,0 C 99 % 1019,3 hPa 0,0 l/m SW 0,00 h 13 W/m 16,8 km/h (3 Bft)
06.12.2018 09:00 6,8 C 99 % 1020,3 hPa 0,0 l/m W-SW 0,00 h 24 W/m 15,7 km/h (3 Bft)
06.12.2018 10:00 7,4 C 100 % 1020,7 hPa 0,0 l/m SW 0,00 h 69 W/m 14,6 km/h (3 Bft)
06.12.2018 11:00 8,3 C 99 % 1020,9 hPa 0,0 l/m W-SW 0,33 h 173 W/m 18,8 km/h (3 Bft)
06.12.2018 12:00 8,9 C 96 % 1020,5 hPa 0,0 l/m W-SW 0,08 h 141 W/m 20,6 km/h (4 Bft)
06.12.2018 13:00 9,0 C 95 % 1020,7 hPa 0,0 l/m W-SW 0,00 h 81 W/m 21,6 km/h (4 Bft)
06.12.2018 14:00 8,9 C 96 % 1020,7 hPa 0,0 l/m W-SW 0,00 h 65 W/m 16,1 km/h (3 Bft)
06.12.2018 15:00 9,0 C 96 % 1020,9 hPa 0,0 l/m W-SW 0,00 h 25 W/m 14,9 km/h (3 Bft)
06.12.2018 16:00 8,8 C 96 % 1021,0 hPa 0,0 l/m W-SW 0,08 h 9 W/m 14,4 km/h (3 Bft)
06.12.2018 17:00 8,5 C 96 % 1021,4 hPa 0,0 l/m W-SW 0,00 h 0 W/m 9,9 km/h (2 Bft)
06.12.2018 18:00 8,0 C 96 % 1021,6 hPa 0,0 l/m N 0,00 h 0 W/m 2,7 km/h (1 Bft)
06.12.2018 19:00 7,7 C 97 % 1021,8 hPa 0,0 l/m W-SW 0,00 h 0 W/m 4,8 km/h (1 Bft)
06.12.2018 20:00 7,9 C 97 % 1021,9 hPa 0,0 l/m W-SW 0,00 h 0 W/m 12,9 km/h (3 Bft)
06.12.2018 21:00 7,7 C 97 % 1021,5 hPa 0,0 l/m SW 0,00 h 0 W/m 9,8 km/h (2 Bft)
06.12.2018 22:00 7,7 C 98 % 1021,3 hPa 0,0 l/m SW 0,00 h 0 W/m 14,5 km/h (3 Bft)
06.12.2018 23:00 8,3 C 97 % 1021,0 hPa 0,0 l/m SW 0,00 h 0 W/m 19,3 km/h (3 Bft)
07.12.2018 00:00 8,5 C 95 % 1020,9 hPa 0,0 l/m W-SW 0,00 h 0 W/m 16,9 km/h (3 Bft)
07.12.2018 01:00 8,5 C 95 % 1020,5 hPa 0,0 l/m W-SW 0,00 h 0 W/m 18,8 km/h (3 Bft)
07.12.2018 02:00 8,4 C 94 % 1020,2 hPa 0,0 l/m SW 0,00 h 0 W/m 13,4 km/h (3 Bft)
07.12.2018 03:00 8,3 C 95 % 1019,6 hPa 0,0 l/m SW 0,00 h 0 W/m 14,9 km/h (3 Bft)
07.12.2018 04:00 8,4 C 95 % 1018,8 hPa 0,0 l/m SW 0,00 h 0 W/m 14,9 km/h (3 Bft)
07.12.2018 05:00 8,4 C 95 % 1018,2 hPa 0,0 l/m SW 0,00 h 0 W/m 19,6 km/h (3 Bft)
07.12.2018 06:00 8,8 C 94 % 1018,2 hPa 0,0 l/m SW 0,00 h 0 W/m 18,2 km/h (3 Bft)
07.12.2018 07:00 8,6 C 94 % 1017,7 hPa 0,0 l/m SW 0,00 h 0 W/m 13,4 km/h (3 Bft)
07.12.2018 08:00 8,5 C 94 % 1017,3 hPa 0,0 l/m SW 0,00 h 16 W/m 14,5 km/h (3 Bft)
07.12.2018 09:00 8,6 C 95 % 1016,6 hPa 0,0 l/m SW 0,00 h 52 W/m 16,4 km/h (3 Bft)
07.12.2018 10:00 9,4 C 93 % 1015,9 hPa 0,0 l/m W-SW 0,00 h 128 W/m 22,5 km/h (4 Bft)
07.12.2018 11:00 9,6 C 90 % 1014,8 hPa 0,0 l/m W-SW 0,00 h 87 W/m 25,8 km/h (4 Bft)
07.12.2018 12:00 9,9 C 88 % 1012,9 hPa 0,0 l/m W-SW 0,17 h 154 W/m 24,7 km/h (4 Bft)
07.12.2018 13:00 10,1 C 86 % 1011,7 hPa 0,0 l/m SW 0,00 h 123 W/m 24,4 km/h (4 Bft)
07.12.2018 14:00 9,9 C 87 % 1011,0 hPa 0,0 l/m W-SW 0,00 h 80 W/m 23,6 km/h (4 Bft)
07.12.2018 15:00 9,5 C 88 % 1010,0 hPa 0,0 l/m W-SW 0,00 h 40 W/m 22,0 km/h (4 Bft)
07.12.2018 16:00 9,1 C 86 % 1008,4 hPa 0,0 l/m W-SW 0,08 h 10 W/m 27,8 km/h (4 Bft)
07.12.2018 17:00 8,5 C 89 % 1007,5 hPa 0,0 l/m W-SW 0,00 h 0 W/m 17,0 km/h (3 Bft)
07.12.2018 18:00 8,2 C 91 % 1007,3 hPa 0,0 l/m W-SW 0,00 h 0 W/m 14,8 km/h (3 Bft)
07.12.2018 19:00 8,7 C 89 % 1007,2 hPa 0,0 l/m W-SW 0,00 h 0 W/m 24,8 km/h (4 Bft)
07.12.2018 20:00 8,6 C 90 % 1007,3 hPa 0,4 l/m W-SW 0,00 h 0 W/m 29,0 km/h (5 Bft)
07.12.2018 21:00 8,4 C 92 % 1007,4 hPa 0,0 l/m W-SW 0,00 h 0 W/m 31,7 km/h (5 Bft)
07.12.2018 22:00 8,3 C 91 % 1007,4 hPa 0,2 l/m W-SW 0,00 h 0 W/m 31,2 km/h (5 Bft)
07.12.2018 23:00 7,2 C 89 % 1008,6 hPa 0,6 l/m W-NW 0,00 h 0 W/m 33,9 km/h (5 Bft)
08.12.2018 00:00 5,7 C 88 % 1010,3 hPa 0,0 l/m W-NW 0,00 h 0 W/m 19,2 km/h (3 Bft)
08.12.2018 01:00 5,1 C 88 % 1011,8 hPa 0,2 l/m W 0,00 h 0 W/m 25,9 km/h (4 Bft)
08.12.2018 02:00 4,3 C 86 % 1012,8 hPa 0,0 l/m W 0,00 h 0 W/m 23,7 km/h (4 Bft)
08.12.2018 03:00 3,8 C 90 % 1013,3 hPa 0,0 l/m W-SW 0,00 h 0 W/m 27,4 km/h (4 Bft)
08.12.2018 04:00 3,6 C 90 % 1013,9 hPa 0,0 l/m SW 0,00 h 0 W/m 26,1 km/h (4 Bft)
08.12.2018 05:00 3,6 C 88 % 1014,1 hPa 0,0 l/m W-SW 0,00 h 0 W/m 24,7 km/h (4 Bft)
08.12.2018 06:00 3,7 C 86 % 1014,3 hPa 0,0 l/m W-SW 0,00 h 0 W/m 32,1 km/h (5 Bft)
08.12.2018 07:00 3,7 C 88 % 1015,1 hPa 0,0 l/m W-SW 0,00 h 0 W/m 21,4 km/h (4 Bft)
08.12.2018 08:00 4,1 C 86 % 1015,3 hPa 0,0 l/m W-SW 0,00 h 14 W/m 25,9 km/h (4 Bft)
08.12.2018 09:00 4,5 C 84 % 1015,1 hPa 0,0 l/m W-SW 0,58 h 120 W/m 30,3 km/h (5 Bft)
08.12.2018 10:00 4,9 C 82 % 1014,5 hPa 0,0 l/m W-SW 0,08 h 109 W/m 33,4 km/h (5 Bft)
08.12.2018 11:00 5,3 C 81 % 1013,9 hPa 0,0 l/m SW 0,67 h 194 W/m 44,0 km/h (6 Bft)
08.12.2018 12:00 5,6 C 80 % 1013,6 hPa 0,0 l/m W 0,08 h 139 W/m 46,5 km/h (6 Bft)
08.12.2018 13:00 5,4 C 83 % 1013,4 hPa 0,0 l/m W-SW 0,25 h 121 W/m 40,9 km/h (6 Bft)
08.12.2018 14:00 5,5 C 86 % 1013,2 hPa 0,0 l/m W-SW 0,08 h 90 W/m 34,3 km/h (5 Bft)
08.12.2018 15:00 5,6 C 86 % 1013,1 hPa 0,0 l/m W-SW 0,00 h 45 W/m 36,2 km/h (5 Bft)
08.12.2018 16:00 5,6 C 87 % 1013,3 hPa 0,0 l/m W-SW 0,00 h 7 W/m 29,5 km/h (5 Bft)
08.12.2018 17:00 5,4 C 89 % 1013,1 hPa 0,0 l/m W-SW 0,00 h 0 W/m 30,4 km/h (5 Bft)
08.12.2018 18:00 5,7 C 87 % 1012,8 hPa 0,0 l/m W-SW 0,00 h 0 W/m 28,2 km/h (4 Bft)
08.12.2018 19:00 5,9 C 85 % 1012,2 hPa 0,0 l/m W-SW 0,00 h 0 W/m 34,2 km/h (5 Bft)
08.12.2018 20:00 5,9 C 86 % 1011,5 hPa 0,0 l/m W-SW 0,00 h 0 W/m 36,7 km/h (5 Bft)
08.12.2018 21:00 5,5 C 89 % 1010,7 hPa 0,0 l/m W-SW 0,00 h 0 W/m 34,5 km/h (5 Bft)
08.12.2018 22:00 5,2 C 93 % 1009,4 hPa 0,2 l/m W-SW 0,00 h 0 W/m 31,3 km/h (5 Bft)
08.12.2018 23:00 5,3 C 94 % 1008,0 hPa 0,2 l/m W-SW 0,00 h 0 W/m 32,2 km/h (5 Bft)
09.12.2018 00:00 5,9 C 93 % 1006,9 hPa 0,0 l/m W-SW 0,00 h 0 W/m 38,5 km/h (5 Bft)
09.12.2018 01:00 6,5 C 91 % 1005,2 hPa 0,2 l/m W-SW 0,00 h 0 W/m 37,0 km/h (5 Bft)
09.12.2018 02:00 6,8 C 92 % 1004,5 hPa 1,0 l/m W-SW 0,00 h 0 W/m 37,7 km/h (5 Bft)
09.12.2018 03:00 6,7 C 94 % 1003,2 hPa 0,4 l/m W-SW 0,00 h 0 W/m 33,8 km/h (5 Bft)
09.12.2018 04:00 7,0 C 94 % 1002,7 hPa 0,0 l/m W-SW 0,00 h 0 W/m 33,7 km/h (5 Bft)
09.12.2018 05:00 7,0 C 93 % 1002,8 hPa 0,2 l/m W-SW 0,00 h 0 W/m 28,3 km/h (4 Bft)
09.12.2018 06:00 5,1 C 91 % 1004,4 hPa 8,0 l/m W-NW 0,00 h 0 W/m 40,4 km/h (6 Bft)
09.12.2018 07:00 3,6 C 94 % 1004,1 hPa 0,0 l/m W 0,00 h 0 W/m 27,1 km/h (4 Bft)
09.12.2018 08:00 4,2 C 95 % 1004,7 hPa 0,0 l/m W 0,00 h 13 W/m 31,9 km/h (5 Bft)
09.12.2018 09:00 4,7 C 92 % 1006,5 hPa 0,0 l/m W-NW 0,00 h 53 W/m 29,2 km/h (5 Bft)
09.12.2018 10:00 5,0 C 92 % 1007,2 hPa 0,0 l/m W-SW 0,00 h 53 W/m 16,5 km/h (3 Bft)
09.12.2018 11:00 5,9 C 91 % 1006,7 hPa 0,0 l/m W-SW 0,25 h 155 W/m 26,9 km/h (4 Bft)
09.12.2018 12:00 6,7 C 86 % 1006,0 hPa 0,0 l/m W-SW 0,00 h 118 W/m 28,4 km/h (4 Bft)
09.12.2018 13:00 6,1 C 88 % 1006,0 hPa 0,4 l/m W 0,25 h 121 W/m 31,8 km/h (5 Bft)
09.12.2018 14:00 5,3 C 93 % 1006,0 hPa 0,4 l/m W-SW 0,00 h 46 W/m 23,7 km/h (4 Bft)
09.12.2018 15:00 5,2 C 94 % 1006,2 hPa 1,4 l/m W-SW 0,00 h 14 W/m 29,0 km/h (5 Bft)
09.12.2018 16:00 4,8 C 94 % 1006,7 hPa 0,6 l/m W-SW 0,00 h 8 W/m 30,1 km/h (5 Bft)
09.12.2018 17:00 4,7 C 95 % 1007,2 hPa 0,2 l/m W-SW 0,00 h 0 W/m 28,2 km/h (4 Bft)
09.12.2018 18:00 4,8 C 95 % 1008,1 hPa 0,4 l/m W 0,00 h 0 W/m 28,1 km/h (4 Bft)
09.12.2018 19:00 4,7 C 95 % 1009,3 hPa 0,2 l/m W 0,00 h 0 W/m 19,4 km/h (3 Bft)
09.12.2018 20:00 4,7 C 95 % 1010,4 hPa 0,2 l/m W 0,00 h 0 W/m 16,9 km/h (3 Bft)
09.12.2018 21:00 4,7 C 96 % 1011,8 hPa 0,0 l/m W-SW 0,00 h 0 W/m 12,8 km/h (3 Bft)
09.12.2018 22:00 4,7 C 96 % 1013,0 hPa 0,0 l/m W-NW 0,00 h 0 W/m 12,9 km/h (3 Bft)
09.12.2018 23:00 4,3 C 95 % 1014,1 hPa 0,0 l/m W 0,00 h 0 W/m 10,9 km/h (2 Bft)
Min-Datum _ 09.12.18 08.12.18 09.12.18 - - - - 04.12.18
_ Min-Zeit 07:10 12:05 04:15 - - - - 06:45
Minimum _ 3,5 C 80 % 1002,4 hPa - - - - 0,0 km/h (0 Bft)
Max-Datum _ 03.12.18 06.12.18 05.12.18 09.12.18 - 04.12.18 04.12.18 08.12.18
_ Max-Zeit 14:35 00:50 08:55 06:20 - 11:40 11:55 11:00
Maximum _ 11,8 C 100 % 1025,6 hPa 8,0 l/m - 0,08 h 524 W/m 57,9 km/h
SW (7 Bft)
Durchschnitt _ 7,0 C 93 % 1014,5 hPa #31,0 l/m W-SW #5:10 h 73 W/m 18,4 km/h (3 Bft)